#timestamp,LO_Frequency,Hit,StdDev 
1667221215.6,286046998.1,N
1667221235.4,286046999.8,N
1667221255.3,286047001.3,N
1667221275.1,286047001.8,N
1667221295.8,286047000.2,N
1667221315.7,286046996.6,N
1667221335.5,286046999.4,N
1667221355.4,286046998.2,N
1667221375.2,286046999.7,N
1667221395.0,286047000.2,N
1667221395.9,286047000.2,N
1667221415.8,286047001.0,N
1667221435.6,286047002.5,N
1667221455.5,286047001.6,N
1667221475.3,286047002.6,N
1667221495.1,286047001.7,N
1667221515.9,286047004.0,N
1667221535.7,286047001.8,N
1667221555.5,286047002.4,N
1667221575.4,286047002.7,N
1667221595.2,286047002.1,N
1667221615.1,286047002.3,N
1667221616.0,286047002.3,N
1667221635.8,286047002.7,N
1667221655.6,286047001.8,N
1667221675.5,286047002.2,N
1667221695.3,286047004.3,N
1667221715.1,286047001.3,N
1667221735.9,286047003.8,N
1667221755.7,286047001.7,N
1667221775.6,286047001.4,N
1667221795.4,286047001.6,N
1667221815.2,286047001.5,N
1667221835.1,286047000.1,N
1667221836.0,286047000.1,N
1667221855.8,286047002.5,N
1667221875.6,286047002.2,N
1667221895.5,286047002.7,N
1667221915.3,286047000.0,N
1667221935.2,286047000.8,N
1667221955.9,286047000.6,N
1667221975.7,286046998.1,N
1667221995.6,286046998.3,N
1667222015.4,286047000.7,N
1667222035.2,286046999.0,N
1667222055.1,286046999.0,N
1667222056.0,286046999.0,N
1667222075.8,286046996.6,N
1667222095.7,286046997.4,N
1667222115.5,286046995.1,N
1667222135.3,286046996.0,N
1667222155.2,286046993.8,N
1667222175.0,286046996.3,N
1667222175.9,286046996.3,N
1667222195.8,286046995.8,N
1667222215.6,286046995.8,N
1667222235.4,286046993.5,N
1667222255.3,286046996.4,N
1667222275.1,286046996.0,N
1667222295.8,286046996.1,N
1667222315.7,286046995.7,N
1667222335.5,286046995.8,N
1667222355.4,286046995.7,N
1667222375.2,286046995.9,N
1667222395.0,286046993.3,N
1667222395.9,286046993.3,N
1667222415.8,286046993.7,N
1667222435.6,286046996.4,N
1667222455.4,286046993.7,N
1667222475.3,286046993.3,Y
1667222495.1,286046997.3,P
1667222515.9,286046997.6,P
1667222535.6,286046997.9,P
1667222555.4,286046997.2,Y
1667222575.2,286047000.6,P
1667222595.1,286047000.3,N
1667222596.0,286047000.3,N
1667222615.8,286047000.7,N
1667222635.6,286047000.8,N
1667222655.5,286047000.8,N
1667222675.3,286047000.9,N
1667222695.2,286046999.9,N
1667222715.9,286047000.5,N
1667222735.7,286046998.2,N
1667222755.6,286047000.8,N
1667222775.4,286047000.7,N
1667222795.2,286046998.5,N
1667222815.1,286047000.8,N
1667222816.0,286047000.8,N
1667222835.8,286046998.8,N
1667222855.7,286046996.9,N
1667222875.5,286046996.7,N
1667222895.3,286046996.6,N
1667222915.2,286046999.6,N
1667222935.0,286046998.6,N
1667222935.9,286046998.6,N
1667222955.8,286047001.0,N
1667222975.6,286047000.8,N
1667222995.4,286046998.1,N
1667223015.3,286046998.5,N
1667223035.1,286046998.8,N
1667223036.0,286046998.8,N
1667223055.8,286046999.3,N
1667223075.7,286046999.3,N
1667223095.5,286046999.0,N
1667223115.3,286046996.9,N
1667223135.2,286046997.9,N
1667223155.0,286046996.6,N
1667223155.9,286046996.6,N
1667223175.8,286046997.5,N
1667223195.6,286046997.8,N
1667223215.4,286046996.9,N
1667223235.3,286046997.2,N
1667223255.1,286046997.1,N
1667223275.8,286046997.3,N
1667223295.7,286046997.3,N
1667223315.5,286046998.0,N
1667223335.4,286046997.5,N
1667223355.2,286046997.9,N
1667223375.0,286046997.7,N
1667223375.9,286046997.7,N
1667223395.8,286046997.5,N
1667223415.6,286046995.3,Y
1667223435.5,286046999.0,P
1667223455.3,286046996.6,P
1667223475.1,286046997.2,N
1667223495.9,286046997.9,N
1667223515.7,286046994.9,Y
1667223535.5,286047001.2,P
1667223555.4,286046998.2,N
1667223575.2,286047000.8,N
1667223595.1,286046998.8,N
1667223596.0,286046998.8,N
1667223615.8,286046999.6,N
1667223635.6,286046998.6,N
1667223655.5,286046998.5,N
1667223675.3,286047001.0,N
1667223695.2,286047001.0,N
1667223715.9,286047000.7,N
1667223735.7,286046998.8,N
1667223755.6,286046998.4,N
1667223775.4,286046998.3,N
1667223795.2,286046998.8,N
1667223815.1,286047000.6,N
1667223816.0,286047000.6,N
1667223835.8,286047000.7,N
1667223855.7,286046998.3,N
1667223875.5,286046999.0,N
1667223895.3,286046998.8,N
1667223915.2,286046998.6,N
1667223935.0,286046998.3,N
1667223935.9,286046998.3,N
1667223955.7,286047000.9,N
1667223975.6,286047000.7,N
1667223995.4,286047000.8,N
1667224015.3,286047000.6,N
1667224035.1,286047000.6,N
1667224036.0,286047000.6,N
1667224055.8,286047000.7,N
1667224075.7,286047000.5,N
1667224095.5,286046998.2,N
1667224115.3,286047001.1,N
1667224135.2,286047000.6,N
1667224155.0,286046998.3,N
1667224155.9,286046998.3,N
1667224175.8,286046998.7,N
1667224195.6,286046998.6,N
1667224215.4,286046998.4,N
1667224235.3,286046999.0,N
1667224255.1,286046999.0,N
1667224275.9,286046996.5,Y
1667224295.7,286046998.7,P
1667224315.5,286046999.3,N
1667224335.4,286046998.5,P
1667224355.2,286046998.2,Y
1667224375.0,286047000.9,P
1667224376.0,286047000.9,N
1667224395.8,286047001.0,N
1667224415.6,286047000.7,N
1667224435.5,286047000.7,N
1667224455.3,286047000.9,N
1667224475.1,286047002.6,Y
1667224495.9,286047000.1,P
1667224515.7,286047002.4,P
1667224535.6,286046999.8,N
1667224555.4,286046998.1,N
1667224575.2,286047000.6,N
1667224595.1,286046998.6,N
1667224596.0,286046998.6,N
1667224615.8,286046998.4,N
1667224635.7,286046998.4,N
1667224655.5,286046998.5,N
1667224675.3,286047000.9,N
1667224695.2,286046999.8,N
1667224715.0,286047000.1,N
1667224715.9,286047000.1,N
1667224735.7,286047000.5,N
1667224755.6,286047001.1,N
1667224775.4,286047001.2,N
1667224795.3,286046999.9,N
